Location: Newark
(43.8478°N, 19.4658°E)
Time: 09:10:32
(UTC+00:00)

ISS - Visible Passes

Search period start: 07 December 2019 00:00
Search period end: 17 December 2019 00:00
Orbit: 411 x 421 km, 51.6° (Epoch: 07 December)

Date Brightness Start Highest point End Pass type
(mag) Time Alt. Az. Time Alt. Az. Time Alt. Az.
07 Dec -3.8 16:40:10 10° NW 16:43:31 61° NNE 16:44:04 51° ENE visible
08 Dec -3.3 15:51:44 10° NW 15:54:57 42° NNE 15:58:06 10° E visible
08 Dec -1.9 17:28:36 10° WNW 17:31:03 30° WSW 17:31:03 30° WSW visible
09 Dec -3.1 16:39:57 10° WNW 16:43:14 54° SW 16:45:21 20° SE visible
10 Dec -3.8 15:51:24 10° WNW 15:54:46 90° NNE 15:58:08 10° ESE visible
10 Dec -0.7 17:29:28 10° WSW 17:31:03 13° SW 17:32:37 10° SSW visible
11 Dec -1.1 16:40:07 10° W 16:42:44 21° SW 16:45:20 10° S visible
12 Dec -1.9 15:51:14 10° WNW 15:54:20 35° SW 15:57:25 10° SSE visible
14 Dec -0.4 15:51:53 10° W 15:53:40 14° SW 15:55:27 10° SSW visible
